CW9803 Weather Reports


time (UTC)temp
F
wind
direction
speed
knots
gust
knots
rain 1hr
in
rain 24hr
in
rain mn
in
humidity
%
barometer
mb
20260502195648 73 218 1.7 2.6 0.00 0.00 0.00 31 1013.1
20260502195139 73 165 3.5 5.2 0.00 0.00 0.00 30 1013.2
20260502194636 72 158 2.6 2.6 0.00 0.00 0.00 34 1013.0
20260502194133 73 147 0.9 1.7 0.00 0.00 0.00 33 1013.1
20260502193629 72 177 1.7 1.7 0.00 0.00 0.00 34 1013.2
20260502193126 73 169 0.9 0.9 0.00 0.00 0.00 33 1013.1
20260502192622 73 190 2.6 2.6 0.00 0.00 0.00 34 1013.1
20260502192120 72 218 1.7 1.7 0.00 0.00 0.00 36 1013.3
20260502191616 73 156 0.9 0.9 0.00 0.00 0.00 35 1013.3
20260502191114 73 136 0.9 0.9 0.00 0.00 0.00 35 1013.4
20260502190611 72 132 0.9 0.9 0.00 0.00 0.00 33 1013.5
20260502190109 73 169 3.5 5.2 0.00 0.00 0.00 33 1013.4
20260502185603 73 146 0.9 0.9 0.00 0.00 0.00 32 1013.5
20260502185100 75 83 0.9 2.6 0.00 0.00 0.00 33 1013.7
20260502184556 73 132 0.0 0.0 0.00 0.00 0.00 31 1013.5
20260502184051 73 122 0.0 0.9 0.00 0.00 0.00 30 1013.4
20260502183548 73 130 0.0 0.0 0.00 0.00 0.00 35 1013.8
20260502183044 72 108 0.9 1.7 0.00 0.00 0.00 35 1013.7
20260502182540 72 134 0.0 0.0 0.00 0.00 0.00 36 1013.7
20260502182036 71 189 1.7 1.7 0.00 0.00 0.00 33 1013.8
20260502181534 70 35 1.7 2.6 0.00 0.00 0.00 33 1013.8
20260502181032 69 336 1.7 2.6 0.00 0.00 0.00 38 1014.0
20260502180528 70 71 1.7 2.6 0.00 0.00 0.00 39 1014.0
20260502170442 62 122 0.9 0.9 0.00 0.00 0.00 50 1014.0
20260502163925 61 110 1.7 2.6 0.00 0.00 0.00 54 1014.2
20260502163421 61 136 0.0 0.0 0.00 0.00 0.00 54 1014.2
20260502162920 59 109 0.0 0.9 0.00 0.00 0.00 56 1014.4
20260502162416 60 130 0.0 0.9 0.00 0.00 0.00 54 1014.3
20260502161913 58 118 0.0 0.9 0.00 0.00 0.00 58 1014.3
20260502161409 56 138 0.0 0.0 0.00 0.00 0.00 60 1014.5
20260502160907 57 94 0.9 0.9 0.00 0.00 0.00 59 1014.5
20260502160405 56 106 0.9 0.9 0.00 0.00 0.00 61 1014.5
20260502151844 52 108 0.0 0.0 0.00 0.00 0.00 72 1014.6
20260502151340 50 125 0.0 0.0 0.00 0.00 0.00 75 1014.5
20260502150838 50 142 0.0 0.0 0.00 0.00 0.00 75 1014.9
20260502150334 50 118 0.0 0.0 0.00 0.00 0.00 76 1014.6
20260502130722 38 119 0.0 0.0 0.00 0.00 0.00 93 1014.6
20260502130220 37 118 0.0 0.0 0.00 0.00 0.00 94 1014.7
20260502123706 38 136 0.0 0.0 0.00 0.00 0.00 93 1014.5
20260502123202 38 127 0.0 0.0 0.00 0.00 0.00 93 1014.2
20260502122659 39 134 0.0 0.0 0.00 0.00 0.00 93 1014.4
20260502122155 39 126 0.0 0.0 0.00 0.00 0.00 93 1014.6
20260502121654 39 145 0.0 0.0 0.00 0.00 0.00 93 1014.3
20260502121151 39 146 0.0 0.0 0.00 0.00 0.00 93 1014.4
20260502120647 39 148 0.0 0.0 0.00 0.00 0.00 93 1014.4
20260502120144 39 162 0.0 0.0 0.00 0.00 0.00 93 1014.4
20260502115642 39 127 0.0 0.0 0.00 0.00 0.00 93 1014.3
20260502115138 39 125 0.0 0.0 0.00 0.00 0.00 93 1014.4
20260502114634 39 127 0.0 0.0 0.00 0.00 0.00 93 1014.4
20260502114132 39 143 0.0 0.0 0.00 0.00 0.00 92 1014.3
20260502113629 40 145 0.0 0.0 0.00 0.00 0.00 92 1014.5
20260502113127 40 174 0.0 0.0 0.00 0.00 0.00 92 1014.4
20260502112625 40 121 0.0 0.0 0.00 0.00 0.00 92 1014.3
20260502112122 40 112 0.0 0.9 0.00 0.00 0.00 91 1014.4
20260502111619 40 153 0.0 0.0 0.00 0.00 0.00 91 1014.5
20260502111116 40 131 0.0 0.0 0.00 0.00 0.00 92 1014.6
20260502110614 40 146 0.0 0.0 0.00 0.00 0.00 91 1014.4
20260502110111 41 147 0.0 0.0 0.00 0.00 0.00 91 1014.4
20260502105609 41 150 0.0 0.0 0.00 0.00 0.00 91 1014.3
20260502105106 41 131 0.0 0.0 0.00 0.00 0.00 90 1014.4
20260502104603 41 125 0.0 0.0 0.00 0.00 0.00 90 1014.5
20260502104100 42 124 0.0 0.0 0.00 0.00 0.00 90 1014.3
20260502103558 42 123 0.0 0.0 0.00 0.00 0.00 90 1014.4
20260502103056 42 125 0.0 0.0 0.00 0.00 0.00 90 1014.3
20260502102551 42 124 0.0 0.0 0.00 0.00 0.00 90 1014.3
20260502102049 42 138 0.0 0.0 0.00 0.00 0.00 89 1014.5
20260502101547 43 173 0.9 0.9 0.00 0.00 0.00 90 1014.3
20260502101045 43 128 0.0 0.0 0.00 0.00 0.00 90 1014.4
20260502100543 43 151 0.0 0.0 0.00 0.00 0.00 90 1014.5
20260502091518 44 115 0.0 0.0 0.00 0.00 0.00 86 1014.4
20260502091015 44 114 0.0 0.0 0.00 0.00 0.00 86 1014.4
20260502090512 44 116 0.0 0.0 0.00 0.00 0.00 86 1014.5
20260502071406 48 146 0.0 0.0 0.00 0.00 0.00 80 1014.6
20260502070905 48 134 0.0 0.0 0.00 0.00 0.00 79 1014.4
20260502070402 48 122 0.0 0.0 0.00 0.00 0.00 79 1014.4
20260502065901 48 127 0.0 0.0 0.00 0.00 0.00 78 1014.5
20260502065359 48 131 0.0 0.0 0.00 0.00 0.00 77 1014.5
20260502064856 49 131 0.0 0.0 0.00 0.00 0.00 76 1014.3
20260502064354 49 130 0.0 0.0 0.00 0.00 0.00 74 1014.3
20260502063851 50 159 0.0 0.0 0.00 0.00 0.00 73 1014.2
20260502063349 49 160 0.0 0.0 0.00 0.00 0.00 74 1014.3
20260502062846 50 155 0.0 0.0 0.00 0.00 0.00 74 1014.0
20260502062343 50 175 0.9 0.9 0.00 0.00 0.00 74 1014.3
20260502061842 50 119 0.0 0.0 0.00 0.00 0.00 74 1014.0
20260502061339 50 128 0.0 0.9 0.00 0.00 0.00 74 1014.0
20260502060835 50 95 0.0 0.0 0.00 0.00 0.00 74 1013.9
20260502060330 50 119 0.0 0.0 0.00 0.00 0.00 73 1014.0
20260502055828 50 127 0.0 0.0 0.00 0.00 0.00 71 1014.0
20260502055326 51 115 0.0 0.0 0.00 0.00 0.00 69 1014.0
20260502054825 52 145 0.0 0.0 0.00 0.00 0.00 67 1013.9
20260502054322 52 147 0.0 0.0 0.00 0.00 0.00 67 1014.2
20260502053820 52 163 0.0 0.0 0.00 0.00 0.00 68 1014.2
20260502053316 52 145 0.0 0.0 0.00 0.00 0.00 67 1014.3
20260502052814 52 146 0.0 0.0 0.00 0.00 0.00 68 1014.0
20260502052312 52 146 0.0 0.0 0.00 0.00 0.00 67 1014.3
20260502051810 52 123 0.0 0.0 0.00 0.00 0.00 67 1014.3
20260502051309 53 153 0.0 0.0 0.00 0.00 0.00 65 1013.9
20260502050804 55 103 0.0 0.0 0.00 0.00 0.00 61 1013.9
20260502050301 55 133 0.0 0.0 0.00 0.00 0.00 60 1014.0
20260502045758 55 103 0.0 0.9 0.00 0.00 0.00 60 1013.9
20260502045254 56 82 0.0 0.0 0.00 0.00 0.00 55 1013.7
20260502044752 57 136 0.0 0.0 0.00 0.00 0.00 55 1013.8
20260502044248 57 113 0.0 0.0 0.00 0.00 0.00 54 1014.0
20260502043745 58 142 0.0 0.0 0.00 0.00 0.00 51 1013.9
20260502043242 60 166 0.0 0.0 0.00 0.00 0.00 50 1013.9
20260502042742 60 85 1.7 1.7 0.00 0.00 0.00 46 1013.9
20260502042239 60 101 0.0 0.0 0.00 0.00 0.00 49 1013.7
20260502041737 59 104 0.0 0.0 0.00 0.00 0.00 50 1013.7
20260502041234 61 82 0.9 0.9 0.00 0.00 0.00 47 1013.7
20260502040731 61 146 0.0 0.0 0.00 0.00 0.00 42 1013.6
20260502040228 62 143 0.0 0.0 0.00 0.00 0.00 43 1013.6
20260502035724 62 121 0.0 0.0 0.00 0.00 0.00 43 1013.4
20260502035221 62 140 0.0 0.0 0.00 0.00 0.00 41 1013.3
20260502034718 62 156 0.0 0.9 0.00 0.00 0.00 42 1013.5
20260502034216 62 135 0.0 0.0 0.00 0.00 0.00 41 1013.3
20260502033714 62 141 0.0 0.0 0.00 0.00 0.00 42 1013.2
20260502033212 63 125 0.0 0.0 0.00 0.00 0.00 43 1013.3
20260502032708 63 116 0.0 0.0 0.00 0.00 0.00 40 1013.2
20260502032204 64 146 0.0 0.0 0.00 0.00 0.00 39 1012.9
20260502031702 64 195 1.7 1.7 0.00 0.00 0.00 39 1013.1
20260502031200 65 164 0.9 0.9 0.00 0.00 0.00 40 1013.1
20260502030658 65 251 2.6 2.6 0.00 0.00 0.00 39 1012.9
20260502030156 65 204 3.5 3.5 0.00 0.00 0.00 39 1013.0
20260502025653 65 177 0.9 0.9 0.00 0.00 0.00 40 1012.6
20260502025150 66 170 2.6 2.6 0.00 0.00 0.00 37 1012.7
20260502024648 66 144 0.9 0.9 0.00 0.00 0.00 37 1013.1
20260502024146 66 144 0.0 0.0 0.00 0.00 0.00 38 1013.0
20260502023644 67 129 0.0 0.0 0.00 0.00 0.00 36 1012.9
20260502023141 67 134 0.0 0.0 0.00 0.00 0.00 37 1012.7
20260502022638 67 163 0.0 0.0 0.00 0.00 0.00 36 1012.5
20260502022135 68 131 0.0 0.0 0.00 0.00 0.00 36 1012.4
20260502021632 68 141 0.0 0.0 0.00 0.00 0.00 36 1012.5
20260502021129 68 144 0.0 0.0 0.00 0.00 0.00 36 1012.6
20260502020627 69 171 1.7 1.7 0.00 0.00 0.00 35 1012.6
20260502020123 69 159 1.7 1.7 0.00 0.00 0.00 34 1012.5
20260502015621 70 149 0.0 0.0 0.00 0.00 0.00 34 1012.6
20260502015117 70 146 0.9 0.9 0.00 0.00 0.00 33 1012.6
20260502014615 70 170 1.7 2.6 0.00 0.00 0.00 33 1012.9
20260502014112 71 147 0.9 1.7 0.00 0.00 0.00 32 1012.6
20260502013608 71 173 3.5 5.2 0.00 0.00 0.00 33 1012.6
20260502013103 71 170 3.5 5.2 0.00 0.00 0.00 32 1012.6
20260502012601 71 193 3.5 5.2 0.00 0.00 0.00 31 1012.6
20260502012059 72 164 3.5 5.2 0.00 0.00 0.00 32 1012.6
20260502011555 72 163 2.6 3.5 0.00 0.00 0.00 31 1012.9
20260502011052 73 167 6.1 7.0 0.00 0.00 0.00 30 1012.7
20260502010549 73 152 0.9 0.9 0.00 0.00 0.00 32 1012.7
20260502010045 73 170 1.7 1.7 0.00 0.00 0.00 31 1012.7
20260502005543 73 137 4.3 7.8 0.00 0.00 0.00 31 1012.9
20260502005040 73 172 3.5 5.2 0.00 0.00 0.00 30 1012.9
20260502004536 74 185 1.7 2.6 0.00 0.00 0.00 31 1012.7
20260502004033 74 161 3.5 5.2 0.00 0.00 0.00 30 1012.7
20260502003531 74 145 0.9 1.7 0.00 0.00 0.00 31 1012.9
20260502003027 74 139 1.7 2.6 0.00 0.00 0.00 29 1013.1
20260502002524 75 197 2.6 3.5 0.00 0.00 0.00 29 1012.7
20260502002021 74 153 0.9 1.7 0.00 0.00 0.00 30 1013.0
20260502001519 74 197 4.3 6.1 0.00 0.00 0.00 29 1013.1
20260502001016 74 177 1.7 2.6 0.00 0.00 0.00 30 1013.0
20260502000514 75 160 1.7 2.6 0.00 0.00 0.00 29 1013.1
20260502000011 75 153 1.7 2.6 0.00 0.00 0.00 29 1013.2
20260501235507 75 204 7.0 7.8 0.00 0.00 0.00 28 1013.1
20260501235002 75 216 1.7 2.6 0.00 0.00 0.00 30 1013.0
20260501234458 76 163 0.9 0.9 0.00 0.00 0.00 30 1013.0
20260501233957 75 163 5.2 7.8 0.00 0.00 0.00 28 1013.2
20260501233454 75 158 4.3 7.0 0.00 0.00 0.00 29 1013.2
20260501232950 75 288 2.6 2.6 0.00 0.00 0.00 26 1013.2
20260501232447 75 134 1.7 2.6 0.00 0.00 0.00 28 1013.3
20260501231944 75 133 2.6 5.2 0.00 0.00 0.00 28 1013.4
20260501231443 74 164 1.7 1.7 0.00 0.00 0.00 29 1013.5
20260501230940 75 176 7.0 7.8 0.00 0.00 0.00 26 1013.3
20260501230440 76 212 7.0 8.7 0.00 0.00 0.00 27 1013.6
20260501225936 76 165 0.9 1.7 0.00 0.00 0.00 28 1013.6
20260501225434 76 159 2.6 3.5 0.00 0.00 0.00 25 1013.6
20260501224930 76 219 2.6 2.6 0.00 0.00 0.00 27 1013.7
20260501224427 76 200 3.5 3.5 0.00 0.00 0.00 29 1013.8
20260501223924 75 212 7.0 8.7 0.00 0.00 0.00 27 1013.8
20260501223421 74 169 5.2 7.0 0.00 0.00 0.00 28 1013.9
20260501222916 75 155 6.1 8.7 0.00 0.00 0.00 28 1014.2
20260501222414 77 205 7.0 7.8 0.00 0.00 0.00 26 1014.0
20260501221910 77 163 2.6 3.5 0.00 0.00 0.00 27 1014.4
20260501221407 76 234 1.7 3.5 0.00 0.00 0.00 25 1014.2
20260501220905 76 143 3.5 3.5 0.00 0.00 0.00 28 1014.4
20260501220403 75 179 7.0 8.7 0.00 0.00 0.00 26 1014.6
20260501215858 74 141 1.7 2.6 0.00 0.00 0.00 28 1014.4
20260501215355 75 202 7.8 11.3 0.00 0.00 0.00 28 1014.5
20260501214851 75 186 4.3 6.1 0.00 0.00 0.00 25 1014.7
20260501214346 75 207 1.7 1.7 0.00 0.00 0.00 27 1014.5
20260501213842 74 175 5.2 7.0 0.00 0.00 0.00 24 1014.6
20260501213339 75 131 3.5 3.5 0.00 0.00 0.00 25 1014.8
20260501212834 74 169 4.3 6.1 0.00 0.00 0.00 24 1014.7
20260501212331 74 153 5.2 6.1 0.00 0.00 0.00 26 1014.7
20260501211828 75 164 4.3 6.1 0.00 0.00 0.00 28 1014.6
20260501211326 73 179 5.2 6.1 0.00 0.00 0.00 26 1014.8
20260501210823 74 184 9.6 12.2 0.00 0.00 0.00 25 1014.8
20260501210320 74 167 1.7 2.6 0.00 0.00 0.00 27 1014.8
20260501205816 74 150 7.0 8.7 0.00 0.00 0.00 22 1014.8
20260501205313 74 176 6.1 8.7 0.00 0.00 0.00 25 1015.0
20260501204810 74 155 5.2 7.8 0.00 0.00 0.00 25 1015.1
20260501204307 74 196 2.6 3.5 0.00 0.00 0.00 27 1015.0
20260501203803 75 247 2.6 2.6 0.00 0.00 0.00 25 1015.2
20260501203300 74 143 3.5 5.2 0.00 0.00 0.00 29 1015.0
20260501202757 73 246 4.3 5.2 0.00 0.00 0.00 32 1014.9
20260501202254 73 142 4.3 6.1 0.00 0.00 0.00 34 1015.2
20260501201751 72 159 4.3 5.2 0.00 0.00 0.00 32 1015.1
20260501201248 73 182 7.8 9.6 0.00 0.00 0.00 32 1015.3
20260501200744 72 164 2.6 2.6 0.00 0.00 0.00 37 1015.3
20260501200242 73 220 4.3 5.2 0.00 0.00 0.00 35 1015.3